SL-14 R/B, 22652

Orbit data source: Space-Track

SL-14 R/B, 22652 is space debris in LEO originally from a launch on Tue, 11 May 1993 UTC launched from the Plesetsk Missile And Space Complex (PKMTR). Debris objects in space refer to the collection of defunct objects orbiting the Earth. Examples of debris include non-operational satellites, rocket bodies, and fragments generated from explosions, collisions, or faulty payload assembly.

Loading next visibility...
Identifier
22652, 1993-030G
Orbit
LEO
Last TLE update
12 hours ago
Origin
Manufacturer
Yuzhnoe
Mission
Spacecraft
Bus & Motor
S5M, Unknown motor
Mass
1,600 kg wet, 1,600 kg dry
Launch date (UTC)
1993-05-11 (32 years ago)
Launch vehicle
Unknown
Launch site
Plesetsk Missile And Space Complex (PKMTR)
Object type
Payload
Rocket body
Debris
Shape & HBR
Cyl, 2.7 m
Radar Cross Section
7.351 m², Medium (>0.1 m² and < 1m²)

Expand to show TLE details & history

TLE from 12 hours ago
0 SL-14 R/B
1 22652U 93030G   25128.75251146  .00000013  00000-0  12045-4 0  9991
2 22652  82.5893 222.3332 0008795 133.6703 347.2510 12.63189928474975
Epoch: 2025-05-08T18:03Z
Definitive object data (Epoch: 2025-05-08T18:03:36.99Z)
Latitude
58.40025°
Longitude
-107.53397°
Altitude
1,412.935 km
Speed
7.162 km/s
True Right ascension
02h 00m 45s
True Declination
58° 15' 34"
Sunlit
Object was in daylight at TLE epoch
Visualization TLE readout
Latitude
-32.3317°
Longitude
-91.00653°
Altitude
1,420.594 km
Speed
7.15 km/s
Apparent Right ascension
02h 40m 47s
Apparent Declination
-35° 48' 59"
Sunlit
Object is in daylight
Visualization observer readout
Local Sidereal Time
14:05:38
Azimuth
297.822° NW
Elevation
-81.947°
Doppler factor
1
Orbital elements
Apogee altitude
1,413.972 km
Perigee altitude
1,400.277 km
Semi-major axis
7,785.262 km
Eccentricity
0.0008795
Inclination
82.5893°
RAAN
222.3332°
Arg. of periapsis
133.6703°
True anomaly
347.22874°
Mean anomaly
347.251°
Eccentric anomaly
347.23987°
Mean motion
3.15961 °/min
BSTAR
0.000012045
Orbital period
113.94 mins
Loading maneuver chart data...
Loading SW <> Apogee altitude chart data...
Loading historical data...
Loading historical data...
Loading historical data...
Loading historical data...
Loading historical data...
Loading historical data...
Loading historical data...

SL-14 R/B Visibility forecast

Observer location: undefined°, undefined°

Span
Click to sort rows by Start time (UTC) header in descending order
Start Az.
Max El. time (UTC)
Max El. Az.
Max El.
End time (UTC)
End Az.
15 mins2025-05-09 06:48:53.433Z180.716° SSW2025-05-09 06:56:53.433Z50.807° ENE44.477°2025-05-09 07:03:53.433Z9.688° NNE
10 mins2025-05-09 08:47:53.433Z258.447° W2025-05-09 08:51:53.433Z290.783° WNW18.765°2025-05-09 08:57:53.433Z338.347° N
12 mins2025-05-09 16:51:53.433Z18.938° NNE2025-05-09 16:56:53.433Z66.907° ENE28.325°2025-05-09 17:03:53.433Z130.24° SE
14 mins2025-05-09 18:45:53.433Z339.044° N2025-05-09 18:51:53.433Z281.529° WNW37.665°2025-05-09 18:59:53.433Z198.894° SSW
12 mins2025-05-10 05:39:53.433Z134.725° SE2025-05-10 05:44:53.433Z87.385° E28.063°2025-05-10 05:51:53.433Z27.143° NE
|